sat.trackr.live / text

‹ back to catalog

STARLINK-5724

NORAD 56427 · 2023-061BF

PAYLOAD ACTIVE UNKNOWN

§ Identity

Operator
Country
US
Launch date
2023-05-04
Launch site
AFETR
Launch vehicle
Mass (kg)
RCS (m²)

Purposes: comms

External: N2YO · Heavens-Above · Gunter

§ Orbital elements

Epoch: 2026-09-20T00:09:41.476320Z

Period
94.27 min
Inclination
43.0020°
Eccentricity
0.0001249
Mean motion
15.27574383 rev/d
Perigee alt
482.2 km
Apogee alt
483.9 km
Semi-major
6,861.2 km
B*
2.6477e-6
RAAN
162.5094°
Arg perigee
263.8705°
Mean anomaly
96.2005°
Rev number
18,667

§ Raw data

STARLINK-57241 56427U 23061BF  26263.00673005 -.00000189  00000+0  26477-5 0  99952 56427  43.0020 162.5094 0001249 263.8705  96.2005 15.27574383186674

JSON: /api/v1/satellites/56427 · /tle

For live sub-satellite position, see the globe view (requires WebGL).

§ Visibility from observer

Set your observer location to see the next 7 days of passes ≥ 10°. The values pass through the URL so the page stays shareable.

No JS? Fill the form by hand. The geolocation button needs JavaScript.